Flag for U.S.A. Weather past 2 weeks in Wichita, Kansas, U.S.A.

Now
44 °F

Haze.


Feels Like: 40 °F
Forecast: 35 / 69 °F
Wind: 7 mph from Southeast

Location: Wichita Mid-Continent Airport


UV Index: 5 (Moderate)

Visibility: 3 mi


Pressure: 30.29 "Hg

Humidity: 76%

Dew point: 37 °F

Location of WichitaLocation

Historic Weather in Wichita

°F

Wichita temperature yesterday

Maximum temperature yesterday: 51 °F (at 6:53 PM)
Minimum temperature yesterday: 38 °F (at 11:53 PM)
Average temperature yesterday: 43 °F

Past Weeks' High & Low Weather Summary

 TemperatureHumidityPressure
High87 °F (Apr 12, 3:53 PM)96% (Apr 3, 8:53 AM)30.33 "Hg (Apr 3, 8:53 AM)
Low28 °F (Apr 15, 1:53 AM)17% (Apr 15, 3:53 PM)29.38 "Hg (Apr 13, 12:53 PM)
Average53 °F54%29.94 "Hg
* Reported Apr 3 7:53 AM — Apr 18 7:53 AM, Wichita, Weather by CustomWeather, © 2014

Note: Actual official high and low records may vary slightly from our data, if they occured in-between our weather recording intervals... More about our weather records

Advertising

Historic Weather Conditions — Data for Previous 24 hours

 ConditionsComfort  
Time TempWeatherWind HumidityBarometerVisibility
7:53 AM
Apr 18
37 °FFog.No wind89%30.30 "Hg1 mi
6:53 AM32 °FIce fog.No wind88%30.29 "Hg2 mi
5:53 AM33 °FFog.No wind92%30.26 "Hg2 mi
4:53 AM34 °FFog.No wind88%30.27 "Hg2 mi
3:53 AM35 °FFog.No wind88%30.27 "Hg2 mi
2:53 AM37 °FFog.3 mph86%30.28 "Hg2 mi
1:53 AM34 °FFog.3 mph88%30.29 "Hg3 mi
12:53 AM37 °FFog.No wind86%30.30 "Hg3 mi
11:53 PM
Apr 17
38 °FClear.No wind83%30.30 "Hg3 mi
10:53 PM40 °FHaze.No wind83%30.29 "Hg4 mi
9:53 PM43 °FHaze.No wind74%30.29 "Hg6 mi
8:53 PM44 °FHaze.7 mph73%30.27 "Hg6 mi
7:53 PM48 °FPassing clouds.6 mph63%30.25 "Hg8 mi
6:53 PM51 °FScattered clouds.7 mph59%30.24 "Hg8 mi
5:53 PM50 °FPartly sunny.7 mph59%30.25 "Hg8 mi
4:53 PM48 °FMostly cloudy.7 mph61%30.27 "Hg8 mi
3:53 PM46 °FCloudy.6 mph63%30.28 "Hg8 mi
2:53 PM43 °FMore clouds than sun.9 mph71%30.30 "Hg7 mi
1:53 PM41 °FMore clouds than sun.10 mph70%30.31 "Hg7 mi
12:53 PM40 °FLight rain. More clouds than sun.9 mph70%30.32 "Hg7 mi
11:53 AM40 °FLight rain. Overcast.9 mph70%30.33 "Hg7 mi
10:53 AM41 °FMostly cloudy.12 mph62%30.30 "Hg10 mi
9:53 AM40 °FMostly cloudy.12 mph65%30.28 "Hg10 mi
Weather by CustomWeather, © 2014

See weather overview